Skip Page Navigation
NASA JPL Caltech
NASA Logo - Jet Propulsion Laboratory + View the NASA Portal
+ Center for Near-Earth Object Studies
JPL Home Earth Solar System Stars & Galaxies Technology
JPL Solar System Dynamics
BODIES ORBITS EPHEMERIDES TOOLS PHYSICAL DATA DISCOVERY FAQ SITE MAP
JPL Small-Body Database Browser
Search: [ help ]  
34015 (2000 OR16)
Classification: Main-belt Asteroid          SPK-ID: 2034015
Ephemeris | Orbit Diagram | Orbital Elements | Mission Design | Physical Parameters | Discovery Circumstances ]

[ show orbit diagram ]
Orbital Elements at Epoch 2459200.5 (2020-Dec-17.0) TDB
Reference: JPL 31 (heliocentric ecliptic J2000)
 Element Value Uncertainty (1-sigma)   Units 
e .1738711204342032 2.7929e-08  
a 2.345340684586012 8.6398e-09 au
q 1.937553671957121 6.6199e-08 au
i 1.664447013603106 3.2058e-06 deg
node 242.7305605830152 0.00012973 deg
peri 6.856515492944704 0.0001302 deg
M 286.8124253607627 1.0988e-05 deg
tp 2459467.211773604612
(2021-Sep-09.71177360)
4.0331e-05 TDB
period 1311.919939565588
3.59
7.2493e-06
1.985e-08
d
yr
n .2744069886758528 1.5163e-09 deg/d
Q 2.753127697214903 1.0142e-08 au
  Orbit Determination Parameters
   # obs. used (total)      979  
   data-arc span      9080 days (24.86 yr)  
   first obs. used      1996-05-13  
   last obs. used      2021-03-23  
   planetary ephem.      DE441  
   SB-pert. ephem.      SB441-N16  
   condition code      0  
   norm. resid. RMS      .53569  
   source      ORB  
   producer      Otto Matic  
   solution date      2021-May-04 04:53:27  

Additional Information
 Earth MOID = .92198 au 
 Jupiter MOID = 2.27875 au 
 T_jup = 3.540 
[ show covariance matrix ]

Ephemeris | Orbit Diagram | Orbital Elements | Mission Design | Physical Parameters | Discovery Circumstances ]

Physical Parameter Table
Parameter Symbol Value Units Sigma Reference Notes
absolute magnitude H 15.91   n/a MPCxxxxx  
diameter diameter 1.729 km 0.326 urn:nasa:pds:neowise_diameters_albedos::2.0[mainbelt] (http://adsabs.harvard.edu/abs/2011ApJ...741...68M)  
geometric albedo albedo 0.235   0.082 urn:nasa:pds:neowise_diameters_albedos::2.0[mainbelt] (http://adsabs.harvard.edu/abs/2011ApJ...741...68M)  

34015 (2000 OR16)          Discovered 2000-Jul-23 by LINEAR at Socorro
Reference: 20020128/Numbers.arcLast Updated: 2004-04-19

Alternate Designations
 2000 OR16 = 1997 TZ20 
Ephemeris | Orbit Diagram | Orbital Elements | Mission Design | Physical Parameters | Discovery Circumstances ]
ABOUT SSD CREDITS/AWARDS PRIVACY/COPYRIGHT GLOSSARY LINKS
FirstGov 2021-May-06 01:43 UT
(server date/time)  
NASA Home Page
Site Manager:   Ryan S. Park
Webmaster  Alan B. Chamberlin